Regional Weather Roundup
Issued by NWS

Home | Current Version | Previous Version | Text Only | Print | Product List | Glossary Off
Versions: 1 2 3 4 5 6 7 8 9 10 11 12 13 14 15 16 17 18 19 20 21 22 23 24 25 26 27 28 29 30 31 32 33 34 35 36 37 38 39 40 41 42 43 44 45 46 47 48 49 50

000
ASUS43 KIND 242309
RWRIN

WEATHER ROUNDUP FOR INDIANA
NATIONAL WEATHER SERVICE INDIANAPOLIS IN
700 PM EDT THU MAY 24 2018

NOTE: "FAIR" INDICATES FEW OR NO CLOUDS BELOW 12,000 FEET WITH NO
SIGNIFICANT WEATHER AND/OR OBSTRUCTIONS TO VISIBILITY.

* - STATION DOES NOT REPORT WEATHER SUCH AS PRECIPITATION OR FOG.

+ - STATION NOT QUALITY CONTROLLED BY THE NATIONAL WEATHER SERVICE.
    USE DATA WITH CAUTION...ESPECIALLY DEWPOINT AND RELATIVE
    HUMIDITY OBSERVATIONS.

INZ001>003-010>013-019-020-250000-
NORTHWEST INDIANA

CITY           SKY/WX    TMP DP  RH WIND       PRES   REMARKS
GARY /AIRPORT/ MOSUNNY   82  50  32 NE8       30.07F
KNOX *+        FAIR      82  45  26 CALM      30.08F
LA PORTE +     FAIR      82  51  33 E5        30.09F
MICHIGAN CITY+ FAIR      81  54  39 CALM      30.08F
MONTICELLO +   FAIR     N/A N/A N/A CALM      30.06F
RENSSELAER +   FAIR      84   9   6 E3        30.07F
VALPARAISO     FAIR      85  54  34 SE8       30.08F

$$

LMZ046-743>745-250000-
SOUTHERN LAKE MICHIGAN

STATION/POSITION TIME  TEMP    WIND        PRES    WAVE
                       AIR SEA DIR/SP/G            HT
                 (UTC) (F)     (DEG/KT/KT) (MB)    (FT)
BURNS HARBOR     2240   69      70/  9/ 10 1019.0F
MICHIGAN CITY    2240   70      40/ 13/ 13   N/A
5NW MICH CITY    2300   65 62   70/  6/  6   N/A     0

$$

INZ004-005-014>016-021>024-250000-
NORTH CENTRAL INDIANA

CITY           SKY/WX    TMP DP  RH WIND       PRES   REMARKS
ELKHART        FAIR      84  45  24 CALM      30.09F
GOSHEN         FAIR      80  50  34 S6        30.10F
LOGANSPORT +   FAIR      82  43  24 S7        30.08F
PERU/GRISSOM   FAIR      84  49  29 CALM      30.08F
ROCHESTER +    FAIR      84  41  21 SE5       30.09F
SOUTH BEND     FAIR      80  47  31 S5        30.10F
WARSAW +       FAIR      81  50  34 E3        30.10F

$$

INZ006>009-017-018-025>027-250000-
NORTHEAST INDIANA

CITY           SKY/WX    TMP DP  RH WIND       PRES   REMARKS
ANGOLA *+      FAIR      81  48  32 S6        30.11F
AUBURN +       FAIR      81  48  32 CALM      30.11F
FORT WAYNE     FAIR      82  48  30 S6        30.10F
HUNTINGTON +   FAIR      81  45  28 E5        30.10F
KENDALLVILLE + FAIR     N/A N/A N/A SW3       30.12F

$$

INZ028-029-035-036-043>045-051>053-250000-
WEST CENTRAL INDIANA

CITY           SKY/WX    TMP DP  RH WIND       PRES   REMARKS
CRAWFORDSVL +  FAIR      80  50  34 E7        30.08F
GREENCASTLE +  FAIR      81  45  28 CALM      30.08F
LAFAYETTE      FAIR      83  48  29 E3        30.05F
TERRE HAUTE    FAIR      84  53  34 VRB5      30.06F

$$

INZ030>032-037>040-046>048-054>057-064-065-250000-
CENTRAL INDIANA

CITY           SKY/WX    TMP DP  RH WIND       PRES   REMARKS
ANDERSON       FAIR      83  47  29 S3        30.10F
COLUMBUS       SUNNY     82  48  30 SE6       30.08F
FISHERS *+     FAIR      82  55  39 S3        30.08F
FRANKFORT +    FAIR      86  46  25 SE6       30.10F
GREENWOOD *+   FAIR      82  50  33 E8        30.08F
INDIANAPOLIS   FAIR      82  47  29 SE8       30.07F
-EAGLE CREEK   FAIR      83  48  29 VRB5      30.07F
KOKOMO +       FAIR      83  46  27 S7        30.09F
MARION +       FAIR      82  47  30 CALM      30.10F HAZE
MT COMFORT *+  FAIR      82  55  39 SE6       30.09F
SHELBYVILLE    FAIR      84  47  27 VRB6      30.07F
ZIONSVILLE +   FAIR      82  47  30 SE8       30.09F

$$

INZ033-034-041-042-049-050-058-059-250000-
EAST CENTRAL INDIANA

CITY           SKY/WX    TMP DP  RH WIND       PRES   REMARKS
MUNCIE         FAIR      84  48  28 SE7       30.09F
RICHMOND +     FAIR      79  50  36 SE7       30.11F HAZE

$$

INZ060-061-067>069-081>083-085>088-250000-
SOUTHWEST INDIANA

CITY           SKY/WX    TMP DP  RH WIND       PRES   REMARKS
EVANSVILLE     FAIR      85  56  37 NE7       30.05F
HUNTINGBURG +  FAIR      85  55  35 VRB6      30.06F
WASHINGTON +   FAIR      84  46  25 SE3       30.05F

$$

INZ062-063-066-070>080-084-089>092-250000-
SOUTH CENTRAL AND SOUTHEAST INDIANA

CITY           SKY/WX    TMP DP  RH WIND       PRES   REMARKS
BATESVILLE +   SUNNY     81  54  39 E6        30.09F
BEDFORD +      FAIR      82  46  28 E3        30.07F
BLOOMINGTON    FAIR      82  54  37 VRB3      30.07F
FRENCH LICK *+ FAIR      81  32  17 E3        30.07F
MADISON *+     FAIR      81  52  36 E6        30.10S
NORTH VERNON + FAIR      81  54  39 E5        30.08F
SEYMOUR +      FAIR      84  54  34 E5        30.06F

$$




USA.gov is the U.S. government's official web portal to all federal, state and local government web resources and services.